Regional Weather Roundup
Issued by NWS Mobile, AL

Home | Current Version | Previous Version | Text Only | Print | Product List | Glossary On
Versions: 1 2 3 4 5 6 7 8 9 10 11 12 13 14 15 16 17 18 19 20 21 22 23 24 25 26 27 28 29 30 31 32 33 34 35 36 37 38 39 40 41 42 43 44 45 46 47 48 49 50
000
ASUS44 KMOB 300010
RWRMOB
REGIONAL WEATHER ROUNDUP
NATIONAL WEATHER SERVICE MOBILE AL
700 PM CDT TUE JUL 29 2014

NOTE: "FAIR" INDICATES FEW OR NO CLOUDS BELOW 12,000 FEET WITH NO
      SIGNIFICANT WEATHER AND/OR OBSTRUCTIONS TO VISIBILITY.

  * THESE STATIONS ARE PART OF THE UNIVERSITY OF SOUTH ALABAMA
    MESONET AND ARE NOT UNDER NWS OR FAA QUALITY CONTROL.

ALZ061>064-300100-
COASTAL ALABAMA

CITY           SKY/WX    TMP DP  RH WIND       PRES   REMARKS
MOBILE REG APT MOCLDY    84  65  52 NW3       29.99S
6HR MIN TEMP:  84; 6HR MAX TEMP:  88;

BROOKLEY FIELD CLEAR     87  65  47 N5        29.99S
6HR MIN TEMP:  86; 6HR MAX TEMP:  90;

USA CAMPUS*      N/A     81  68  65 CALM      29.96S
DOG RIVER*       N/A     88  63  42 N3        29.98


CITY           SKY/WX    TMP DP  RH WIND       PRES   REMARKS
MOUNT VERNON*    N/A     82  70  65 CALM      29.98R
SARALAND*      NOT AVBL
BAY MINETTE*   NOT AVBL
LOXLEY*          N/A     82  64  54 NW5       29.98
ROBERTSDALE*     N/A     82  64  54 CALM      29.97S
FAIRHOPE*        N/A     84  66  54 N2        29.96F
ELBERTA*         N/A     84  73  70 N3        29.96F
FOLEY*         NOT AVBL
GRAND BAY*       N/A     86  64  48 NW2       29.96F
DAUPHIN ISLND* NOT AVBL
BON SCOUR NWR* NOT AVBL
GULF SHORES      N/A     84  64  49 NW6       29.97S

$$

ALZ051>060-300100-
INTERIOR SOUTHWEST AND SOUTH CENTRAL ALABAMA

CITY           SKY/WX    TMP DP  RH WIND       PRES   REMARKS
GREENVILLE     NOT AVBL
EVERGREEN      CLEAR     85  62  46 N6        29.99S
6HR MIN TEMP:  85; 6HR MAX TEMP:  92;

CASTLEBERRY*   NOT AVBL
ATMORE*          N/A     82  64  54 NW6       29.99F
DIXIE*         NOT AVBL
ANDALUSIA/OPP  CLEAR     87  62  43 NE7       29.98R
6HR MIN TEMP:  87; 6HR MAX TEMP:  93;

ANDALUSIA*     NOT AVBL
FLORALA APT    CLEAR     82  64  54 N3        29.99S
6HR MIN TEMP:  82; 6HR MAX TEMP:  89;

FLORALA*       NOT AVBL

$$

FLZ001>006-300100-
WESTERN FLORIDA PANHANDLE

CITY           SKY/WX    TMP DP  RH WIND       PRES   REMARKS
PENSACOLA      CLEAR     83  62  49 NW9       29.96S
6HR MIN TEMP:  83; 6HR MAX TEMP:  87;

NAS PENSACOLA  MOCLDY    84  64  50 NW6       29.96S
6HR MIN TEMP:  84; 6HR MAX TEMP:  90;

MILTON         PTCLDY    83  66  56 NW3       29.97S
6HR MIN TEMP:  83; 6HR MAX TEMP:  88;

WHTNG S FIELD  PTCLDY    85  64  49 NW6       29.97S
6HR MIN TEMP:  85; 6HR MAX TEMP:  90;



CITY           SKY/WX    TMP DP  RH WIND       PRES   REMARKS
WALNUT HILL*   NOT AVBL
JAY*           NOT AVBL
DUKE FIELD     PTCLDY    85  67  55 N6        29.96F
CRESTVIEW      CLEAR     85  63  47 VRB3      29.98S
6HR MIN TEMP:  85; 6HR MAX TEMP:  91;

VALPARAISO     PTCLDY    87  62  42 N8        29.95F
6HR MIN TEMP:  86; 6HR MAX TEMP:  91;

DESTIN         CLEAR     87  62  43 N10       29.95S
6HR MIN TEMP:  86; 6HR MAX TEMP:  91;


$$

MSZ076-079-300100-
INTERIOR SOUTHEAST MISSISSIPPI

CITY           SKY/WX    TMP DP  RH WIND       PRES   REMARKS
LEAKESVILLE*     N/A     84  63  48 NW5         N/A
AGRICOLA*      NOT AVBL

$$

MARINE OBSERVATIONS

STATION/POSITION TIME  TEMP    WIND        PRES    WAVE
                       AIR SEA DIR/SP/G            HT/PER
                 (UTC) (F)     (DEG/KT/KT) (MB)    (FT/S)
PASCAGOULA       0000   87     340/  7/ 10 1015.1R
PETIT BOIS ISLND 0000   84     270/  9/ 12 1015.5F
GRAND BAY        2300   86     340/  8     1017.0S
KATRINA CUT      2300   83     190/  7     1015.9F
CEDAR POINT      2300   83     230/  6     1015.2S
E DAUPHIN ISLAND 2300   83     230/  6/  8 1015.3F
MIDDLE BAY LIGHT 2300   88      30/  9     1014.9R
USCG MOBILE BAY  0000   87 85  350/  3/  4 1014.0S
STATE DOCKS      0000   88 83              1014.9R
MEAHER PARK      2300   87      10/  3     1014.2F
WEEKS BAY        2300   87                   N/A
12 S ORANGE BCH  0000   86 85  340/ 12/ 14 1014.5F   1/ 3
PENSACOLA BAY    0000   88 87  360/  7/ 11 1014.8S
64 S DAUPHIN ISL 2156   83 87  340/ 12/ 14 1015.7S
67 S FORT MORGAN 2300   82                 1015.2F

$$

SELECTED LOCATIONS ACROSS THE REGION

CITY           SKY/WX    TMP DP  RH WIND       PRES   REMARKS
NEW ORLEANS    PTSUNNY   86  64  47 N6        30.01S
GULFPORT       CLEAR     89  63  41 N9        29.98S
PASCAGOULA AP  CLEAR     86  66  51 NW3       29.98S
PASCAGOULA*      N/A     86  63  45 NE5       29.97S
HATTIESBURG    MOSUNNY   87  63  44 N7        30.01R
LAUREL         SUNNY     84  63  48 NW8       30.03S
MERIDIAN       SUNNY     81  61  50 N10       30.03R
JACKSON        MOSUNNY   82  61  48 N14       30.05R
MONTGOMERY     CLEAR     83  61  47 NW8       29.99S
TROY           CLEAR     83  60  45 NW7       29.99S
KINSTON*       NOT AVBL
GENEVA*          N/A     82  64  54 CALM      29.98
ASHFORD*       NOT AVBL
DOTHAN         CLEAR     81  66  60 N5        30.00S
PANAMA CITY    PTCLDY    85  63  47 N6        29.94S

$$




USA.gov is the U.S. government's official web portal to all federal, state and local government web resources and services.